ATLAS 5 CENTAUR DEB, 45472

Orbit data source: Space-Track

ATLAS 5 CENTAUR DEB, 45472 is space debris in HEO originally from a launch on Wed, 17 Oct 2018 UTC launched from the Air Force Eastern Test Range (AFETR). Debris objects in space refer to the collection of defunct objects orbiting the Earth. Examples of debris include non-operational satellites, rocket bodies, and fragments generated from explosions, collisions, or faulty payload assembly.

Loading next visibility...
Identifier
45472, 2018-079BU
Orbit
HEO
Country
Flag of USUS
Related business
Flag of USUnited Launch Alliance/Lockheed Martin (US)
Manufacturer
ULA Decatur
Mission
Spacecraft
Bus & Motor
Unknown
Mass
Unknown
Launch date (UTC)
2018-10-17 (8 years ago)
Launch vehicle
Unknown
Launch site
Air Force Eastern Test Range (AFETR)
Object type
Payload
Rocket body
Debris
Shape & HBR
Unknown shape, 1.1 m
Radar Cross Section
RCS unknown

Expand to show TLE details & history
Last TLE update: 2 days ago

TLE from 2 days ago
0 ATLAS 5 CENTAUR DEB
1 45472U 18079BU  26126.29446228 -.00000136  00000-0  00000-0 0  9992
2 45472  13.3820  33.2561 4782563 319.3235  13.4502  1.81834049 31863
Epoch: 2026-05-06T07:04Z
TLE epoch observation values (Epoch: 2026-05-06T07:04:01.540Z)
Latitude
-0.00003°
Longitude
63.0421°
Altitude
9,672.734 km
Speed
5.967 km/s
True Right ascension
02h 12m 49s
True Declination
0° 00' 00"
Sunlit
Object was in daylight at epoch
Visualization orbit readout
Latitude
Unknown
Longitude
Unknown
Altitude
Unknown
Speed
Unknown
Apparent Right ascension
Unknown
Apparent Declination
Unknown
Sunlit
N/A
Visualization observer readout
Local Sidereal Time
23:48:22
Azimuth
Unknown
Elevation
Unknown
Doppler factor
Unknown
Orbital elements
Apogee altitude
35,539.875 km
Perigee altitude
8,416.631 km
Semi-major axis
28,356.39 km
Eccentricity
0.47826
Inclination
13.382°
RAAN
33.2561°
Arg. of periapsis
319.3235°
True anomaly
41.01196°
Mean anomaly
13.4502°
Eccentric anomaly
25.05438°
Mean motion
0.45453 °/min
Orbital period
792.02 mins
BSTAR
0
Loading maneuver chart data...
Computing Atmospheric mass density...

Documentation

Showing up to 5 results
|